This demonstration page uses our WeatherBlox Daily Observations layout. Learn more.

Left ArrowRight Arrow

38.83388, -104.82136

Hourly Observations for January 13, 2015

Temp ( °F °C ) Dew Point ( °F °C ) Humidity (%) Winds ( mph kmh ) Pressure ( in mb ) Visibility ( mi km ) Precip ( " mm )
2:56 am 02:56 Mostly Cloudy with Freezing Fog 14 -10.2 13 -10.8 95 95 SE 3 6 30.34 1028 1 2 N/A
4:56 am 04:56 Mostly Cloudy with Freezing Fog 13 -10.5 12 -11.2 95 95 VRB 2 4 30.30 1026 1 2 0.00 0.00
5:56 am 05:56 Mostly Cloudy with Freezing Fog 13 -10.6 12 -11.2 95 95 SSE 2 4 30.30 1026 1 2 N/A
6:56 am 06:56 Mostly Cloudy with Freezing Fog 13 -10.3 12 -11 95 95 VRB 1 2 30.29 1026 1 1 N/A
8:01 am 08:01 Mostly Cloudy with Freezing Fog 14 -10 14 -10 100 100 NNW 2 4 30.39 1029 3 5 N/A
8:56 am 08:56 Mostly Cloudy with Mist and Fog 16 -9.1 15 -9.7 95 95 Calm 30.30 1026 2 4 N/A
9:26 am 09:26 Mostly Cloudy with Freezing Fog 16 -9 16 -9 100 100 VRB 1 2 30.36 1028 5 8 N/A
9:56 am 09:56 Mostly Cloudy with Mist and Fog 18 -8 17 -8.4 97 97 VRB 2 4 30.32 1027 7 11 N/A
10:31 am 10:31 Mostly Cloudy with Fog 21 -6 19 -7 93 93 Calm 30.30 1026 3 5 N/A
10:56 am 10:56 Mostly Cloudy with Patchy Fog 20 -6.6 20 -6.8 99 99 VRB 2 4 30.32 1027 3 5 0.03 0.76
11:11 am 11:11 Partly Cloudy with Patchy Fog 27 -3 27 -3 100 100 N 8 13 30.21 1023 4 6 N/A
11:26 am 11:26 Partly Cloudy with Patchy Fog 27 -3 27 -3 100 100 N 3 6 30.21 1023 5 8 N/A
11:41 am 11:41 Mostly Sunny 28 -2 28 -2 100 100 N 8 13 30.18 1022 10 16 N/A
11:56 am 11:56 Mostly Cloudy with Patchy Fog 24 -4.7 23 -4.8 99 99 NNW 6 9 30.27 1025 1 2 0.05 1.27
12:41 pm 12:41 Mostly Cloudy 30 -1 30 -1 100 100 N 10 17 30.15 1021 10 16 N/A
12:56 pm 12:56 Mostly Cloudy with Mist and Fog 31 -0.8 31 -0.7 100 100 VRB 6 9 30.22 1024 1 1 0.02 0.51
1:11 pm 13:11 Partly Cloudy 30 -1 30 -1 100 100 N 16 26 30.12 1020 10 16 N/A
1:56 pm 13:56 Mostly Cloudy 30 -1 31 -0.8 100 100 N 12 19 30.24 1024 10 16 0.00 0.00
2:56 pm 14:56 Cloudy 29 -1.8 29 -1.7 100 100 NNW 13 20 30.26 1025 9 14 N/A
3:56 pm 15:56 Cloudy 28 -2.2 28 -2.1 100 100 N 20 31 30.28 1025 10 16 N/A
4:08 pm 16:08 Cloudy 28 -2 28 -2 100 100 N 21 33 30.18 1022 10 16 N/A
4:56 pm 16:56 Cloudy 29 -1.9 29 -1.9 100 100 NNW 17 28 30.30 1026 10 16 0.00 0.00
4:59 pm 16:59 Cloudy with Light Snow 28 -2 28 -2 100 100 NNW 15 24 30.21 1023 10 16 N/A
5:42 pm 17:42 Windy with Snow Showers Likely 28 -2 27 -3 93 93 N 21 33 30.21 1023 10 16 N/A
5:56 pm 17:56 Mostly Cloudy with Light Snow Showers 29 -1.5 27 -3 90 90 NNW 17 28 30.32 1027 10 16 N/A
6:06 pm 18:06 Mostly Cloudy 30 -1 27 -3 86 86 N 17 28 30.21 1023 10 16 N/A
6:07 pm 18:07 Mostly Cloudy with Light Snow Showers 30 -1 27 -3 86 86 N 16 26 30.21 1023 10 16 N/A
6:22 pm 18:22 Mostly Cloudy 30 -1 27 -3 86 86 N 15 24 30.21 1023 10 16 N/A
6:56 pm 18:56 Mostly Cloudy 28 -2.3 26 -3.4 92 92 N 15 24 30.34 1028 10 16 N/A
7:56 pm 19:56 Mostly Clear 26 -3.1 25 -3.9 94 94 N 8 13 30.35 1028 10 16 N/A
8:56 pm 20:56 Mostly Cloudy 26 -3.3 25 -4 95 95 VRB 2 4 30.37 1029 10 16 N/A
9:28 pm 21:28 Mostly Cloudy with Light Snow Showers 27 -3 25 -4 93 93 VRB 1 2 30.36 1028 10 16 N/A
9:56 pm 21:56 Cloudy with Light Snow Showers 26 -3.5 24 -4.3 94 94 NNW 5 7 30.37 1029 8 13 N/A
10:27 pm 22:27 Cloudy 25 -4 25 -4 100 100 N 2 4 30.39 1029 6 10 N/A
10:29 pm 22:29 Cloudy 25 -4 25 -4 100 100 N 3 6 30.39 1029 6 10 N/A
10:32 pm 22:32 Cloudy with Light Snow Showers 25 -4 25 -4 100 100 NNW 5 7 30.39 1029 6 10 N/A
10:56 pm 22:56 Mostly Cloudy with Light Snow 25 -3.7 24 -4.3 96 96 S 5 7 30.39 1029 4 6 N/A
11:01 pm 23:01 Mostly Cloudy with Light Snow 25 -4 25 -4 100 100 S 5 7 30.39 1029 4 6 N/A
11:18 pm 23:18 Cloudy with Light Snow 25 -4 25 -4 100 100 VRB 1 2 30.39 1029 3 4 N/A
11:33 pm 23:33 Cloudy 25 -4 25 -4 100 100 S 6 9 30.39 1029 2 4 N/A
11:36 pm 23:36 Cloudy with Light Snow 25 -4 25 -4 100 100 S 7 11 30.39 1029 2 4 N/A
11:56 pm 23:56 Mostly Cloudy with Light Snow 25 -4.1 25 -4.1 100 100 Calm 30.35 1028 3 5 N/A
11:58 pm 23:58 Mostly Cloudy with Light Snow 25 -4 25 -4 100 100 VRB 2 4 30.39 1029 3 4 N/A

Powered by AerisWeather